This demonstration page uses our WeatherBlox Daily Observations layout. Learn more.

Left ArrowRight Arrow

36.17497, -115.13722

Hourly Observations for April 23, 2017

Temp ( °F °C ) Dew Point ( °F °C ) Humidity (%) Winds ( mph kmh ) Pressure ( in mb ) Visibility ( mi km ) Precip ( " mm )
12:53 am 00:53 Clear 69 20.6 29 -1.7 22 22 SSW 3 6 29.82 1010 10 16.0934 N/A
1:53 am 01:53 Clear 68 20 29 -1.7 23 23 SW 3 6 29.8 1009 10 16.0934 N/A
2:53 am 02:53 Clear 68 20 29 -1.7 23 23 N N/A 29.78 1009 10 16.0934 N/A
3:53 am 03:53 Clear 65 18.3 30 -1.1 27 27 N N/A 29.77 1008 10 16.0934 N/A
4:53 am 04:53 Clear 63 17.2 28 -2.2 27 27 E 6 9 29.75 1008 10 16.0934 N/A
5:53 am 05:53 Clear 64 17.8 30 -1.1 28 28 N N/A 29.76 1008 10 16.0934 N/A
6:53 am 06:53 Sunny 64 17.8 30 -1.1 28 28 N N/A 29.77 1008 10 16.0934 N/A
7:53 am 07:53 Sunny 68 20 27 -2.8 21 21 ESE 8 13 29.76 1008 10 16.0934 N/A
8:53 am 08:53 Sunny 71 21.7 29 -1.7 21 21 ESE 9 15 29.75 1008 10 16.0934 N/A
9:53 am 09:53 Sunny 81 27.2 25 -3.9 13 13 S 16 26 29.73 1007 10 16.0934 N/A
10:35 am 10:35 Sunny 84 28.9 23 -5 10 10 SW 15 24 29.59 1002 10 16.0934 N/A
10:53 am 10:53 Sunny 85 29.4 24 -4.4 11 11 SSW 18 30 29.71 1006 10 16.0934 N/A
11:53 am 11:53 Sunny 86 30 25 -3.9 11 11 SSW 22 35 29.69 1005 10 16.0934 N/A
12:53 pm 12:53 Sunny 88 31.1 17 -8.3 7 7 SSW 20 31 29.66 1004 10 16.0934 N/A
1:53 pm 13:53 Sunny 88 31.1 20 -6.7 8 8 SW 23 37 29.65 1004 10 16.0934 N/A
2:45 pm 14:45 Sunny 85 29.4 23 -5 10 10 W 17 28 29.56 1001 10 16.0934 N/A
2:53 pm 14:53 Sunny 87 30.6 21 -6.1 9 9 SW 22 35 29.65 1004 10 16.0934 N/A
3:03 pm 15:03 Sunny 84 29 21 -6 10 10 W 9 15 29.56 1001 10 16.0934 N/A
3:53 pm 15:53 Sunny 86 30 24 -4.4 10 10 W 13 20 29.62 1003 10 16.0934 N/A
4:53 pm 16:53 Sunny 88 31.1 17 -8.3 7 7 W 26 43 29.61 1003 10 16.0934 N/A
5:53 pm 17:53 Sunny 86 30 16 -8.9 7 7 W 18 30 29.61 1003 10 16.0934 N/A
6:53 pm 18:53 Sunny 84 28.9 12 -11.1 6 6 WSW 16 26 29.61 1003 10 16.0934 N/A
7:53 pm 19:53 Clear 82 27.8 12 -11.1 7 7 WSW 13 20 29.62 1003 10 16.0934 N/A
8:53 pm 20:53 Clear 80 26.7 15 -9.4 8 8 SW 15 24 29.64 1004 10 16.0934 N/A
9:53 pm 21:53 Clear 76 24.4 19 -7.2 12 12 SSW 13 20 29.64 1004 10 16.0934 N/A
10:53 pm 22:53 Clear 74 23.3 18 -7.8 12 12 SSW 10 17 29.64 1004 10 16.0934 N/A
11:53 pm 23:53 Clear 69 20.6 20 -6.7 15 15 S 3 6 29.66 1004 10 16.0934 N/A

Powered by AerisWeather